Tracking 29892 objects as of 21-Nov-2024
HD Live streaming from Space Station
objects crossing your sky now

ARIANE 5 R/B

Track ARIANE 5 R/B now!


NORAD ID: 36832
Int'l Code: 2010-037C
Perigee: 245.1 km
Apogee: 31,864.7 km
Inclination: 2.3 °
Period: 557.0 minutes
Semi major axis: 22425 km
RCS: 25.4404 m2 (large)
Launch date: August 4, 2010
Source: France (FR)
Launch site: FRENCH GUIANA (FRGUI)

Note: This is a ROCKET BODY
Your satellite tracking list
Your tracking list is empty




NASA's NSSDC Master Catalog

Two Line Element Set (TLE):
1 36832U 10037C   24325.84057487  .00008108  00000-0  14669-2 0  9997
2 36832   2.2874 266.4261 7049780 179.5962 182.0695  2.58510355127126
Source of the keplerian elements: AFSPC